User: anonymous   Login
Location: Unspecified
(0.0000°N, 0.0000°E)
Time: 20:04:24
(UTC+00:00)
Language:

NOSS 3-1 (A) - Orbit

View from above orbital plane
View from above orbital plane
View from above satellite
View from above satellite

Ground track
Ground track

The orbit data is extracted from the following two-line orbital elements,

1 26905U 01040A   19042.74590158 0.00000000  00000-0  00000-0 0    05
2 26905  63.4110 289.2223 0423000 359.4990   0.5010 13.40768153    09
Epoch (UTC): 11 February 2019 17:54:05
Eccentricity: 0.0423000
inclination: 63.4110°
perigee height: 790 km
apogee height: 1423 km
right ascension of ascending node: 289.2223°
argument of perigee: 359.4990°
revolutions per day: 13.40768153
mean anomaly at epoch: 0.5010°
orbit number at epoch: 0

The dashed part of the orbit path shows where the satellite is in the earth's shadow,  

DLR